Content
SEND FEEDBACK

Daily
Averages
Monthly
Summary
Canada

QUEBEC CITY, QUEBEC


Home > North America > Canada > Quebec
Elevation: 239 feet     Latitude: 46 48N     Longitude: 071 23W

WEATHER
 
SELECT A DAY
Number of Records: 192,772;   Date Range: 6/30/96 - 9/15/14
 
SHARE

PRINT THIS DATA

[ ← Previous Day ]
WEATHER ALMANAC - FEBRUARY 12, 2014
[ Next Day → ]
[ °C ]   °F
Weather ElementAverageHighLow
Temperature1.5 °F11 °F (4:00 pm)-17 °F (7:00 am)
Dewpoint-10.2 °F-5.8 °F (11:00 am)-23 °F (7:00 am)
Humidity54.9 %66 % (11:00 am)29 % (4:00 pm)
Barometer30.46 in30.55 in (8:00 am)30.32 in (11:00 pm)
Wind Speed7.2 mph16.1 mph (11:00 am)
Weather ElementAverage
Visibility22.2 mi
Wind DirectionSSW (202.6 °)

Weather ElementTotal
Precipitation---
Heating Degree Days68 (Base 65)
Averaged from 31 records on February 12, 2014
WEATHER CONDITIONS BREAKOUT
WIND DIRECTION BREAKOUT
WEATHER BY HOUR - FEBRUARY 12, 2014
[ °C ]   °F
Local TimeTemperatureDewpointHumidityBarometerVisibilityWind DirectionWind SpeedGust SpeedPrecipitationEventsConditions
1:00 AM-2.0 °F-13.0 °F43 %30.44 inWSW (250°)10.4 mph
1:00 AM-4.0 °F-14.8 °F60 %30.44 in15.0 miWSW (240°)10.4 mphClear
2:00 AM-2.2 °F-13.0 °F60 %30.47 in15.0 miWSW (250°)15.0 mphClear
3:00 AM-5.8 °F-14.8 °F65 %30.46 in15.0 miSSW (210°)8.1 mphClear
4:00 AM-8.0 °F-16.0 °F54 %30.50 inWSW (240°)1.2 mph
4:00 AM-5.8 °F-14.8 °F65 %30.50 in15.0 miSW (230°)9.2 mphClear
5:00 AM-7.6 °F-16.6 °F65 %30.51 in15.0 miSW (220°)4.6 mphClear
6:00 AM-7.6 °F-16.6 °F65 %30.53 in15.0 miSW (230°)11.5 mphPartly Cloudy
7:00 AM-17.0 °F-23.0 °F61 %30.54 inWest (270°)1.2 mph
7:00 AM-7.6 °F-16.6 °F65 %30.54 in30.0 miWest (260°)8.1 mphPartly Cloudy
8:00 AM-4.0 °F-13.0 °F65 %30.55 in30.0 miSW (220°)13.8 mphPartly Cloudy
9:00 AM-2.2 °F-13.0 °F60 %30.55 in30.0 miSW (230°)11.5 mphScattered Clouds
10:00 AM2.0 °F-10.0 °F43 %30.55 inSW (230°)5.8 mph
10:00 AM1.4 °F-9.4 °F61 %30.55 in30.0 miSW (220°)12.7 mphMostly Cloudy
11:00 AM3.2 °F-5.8 °F66 %30.55 in30.0 miSW (230°)16.1 mphMostly Cloudy
12:00 PM6.8 °F-7.6 °F52 %30.53 in30.0 miSW (220°)13.8 mphMostly Cloudy
1:00 PM10.0 °F-7.0 °F31 %30.51 inWSW (240°)8.1 mph
1:00 PM8.6 °F-5.8 °F52 %30.51 in30.0 miWSW (250°)11.5 mphMostly Cloudy
2:00 PM10.4 °F-5.8 °F48 %30.49 in30.0 miWSW (250°)9.2 mphMostly Cloudy
3:00 PM10.4 °F-5.8 °F48 %30.45 in30.0 miWSW (250°)4.6 mphOvercast
4:00 PM11.0 °F-6.0 °F29 %30.43 inWSW (250°)4.6 mph
4:00 PM10.4 °F-5.8 °F48 %30.43 in30.0 miWest (260°)3.5 mphOvercast
5:00 PM10.4 °F-5.8 °F48 %30.41 in30.0 miWest (270°)2.3 mphOvercast
6:00 PM6.8 °F-5.8 °F56 %30.41 in15.0 miCalmMostly Cloudy
7:00 PM2.0 °F-6.0 °F55 %30.39 inNorth1.2 mph
7:00 PM6.8 °F-7.6 °F52 %30.39 in15.0 miNNE (20°)3.5 mphMostly Cloudy
8:00 PM6.8 °F-5.8 °F56 %30.35 in15.0 miNorth (360°)3.5 mphMostly Cloudy
9:00 PM5.0 °F-7.6 °F56 %30.35 in15.0 miNorth (10°)5.8 mphMostly Cloudy
10:00 PM3.0 °F-7.0 °F50 %30.33 inNorth2.3 mph
10:00 PM5.0 °F-7.6 °F56 %30.33 in15.0 miNorth (10°)5.8 mphOvercast
11:00 PM1.4 °F-7.6 °F66 %30.32 in15.0 miNorth (360°)4.6 mphOvercast
Hourly data recorded from CYQB, located miles away from Quebec City, Quebec







STORIES FROM OUR PARTNERS